This is the latest recevied weather packets stored in our database for station/object S59MA-6. If no packets are shown the sender has not sent any weather packets the latest 10 day(s).
| Time | Temp. | Humidity | Pressure | Rain* | Wind** | Luminosity | Snow |
|---|---|---|---|---|---|---|---|
| 1778397916 | 17.78° C | 69% | 1004.4 hPa | 0 mm | - | - | - |
| 1778397619 | 17.78° C | 68% | 1004.4 hPa | 0 mm | - | - | - |
| 1778397317 | 17.78° C | 68% | 1004.4 hPa | 0 mm | - | - | - |
| 1778397017 | 17.78° C | 68% | 1004.5 hPa | 0 mm | - | - | - |
| 1778396719 | 17.78° C | 67% | 1004.4 hPa | 0 mm | - | - | - |
| 1778396119 | 17.78° C | 66% | 1004.6 hPa | 0 mm | - | - | - |
| 1778395218 | 18.33° C | 66% | 1004.7 hPa | 0 mm | - | - | - |
| 1778394918 | 18.89° C | 66% | 1004.5 hPa | 0 mm | - | - | - |
| 1778394617 | 18.89° C | 66% | 1004.6 hPa | 0 mm | - | - | - |
| 1778394318 | 18.89° C | 66% | 1004.6 hPa | 0 mm | - | - | - |
| 1778393718 | 19.44° C | 67% | 1004.8 hPa | 0 mm | - | - | - |
| 1778393417 | 19.44° C | 67% | 1004.8 hPa | 0 mm | - | - | - |
| 1778393118 | 19.44° C | 67% | 1004.9 hPa | 0 mm | - | - | - |
| 1778392818 | 19.44° C | 68% | 1004.6 hPa | 0 mm | - | - | - |
| 1778392518 | 18.89° C | 70% | 1004.7 hPa | 0 mm | - | - | - |
| 1778391917 | 18.33° C | 71% | 1004.8 hPa | 0 mm | - | - | - |
| 1778391620 | 18.33° C | 72% | 1004.7 hPa | 0 mm | - | - | - |
| 1778391017 | 18.33° C | 76% | 1004.9 hPa | 0 mm | - | - | - |
| 1778390718 | 18.33° C | 77% | 1004.9 hPa | 0 mm | - | - | - |
| 1778390117 | 17.22° C | 80% | 1004.9 hPa | 0 mm | - | - | - |
| 1778389817 | 16.67° C | 81% | 1005 hPa | 0 mm | - | - | - |
| 1778389518 | 16.11° C | 82% | 1005.1 hPa | 0 mm | - | - | - |
| 1778389218 | 15.56° C | 83% | 1005.1 hPa | 0 mm | - | - | - |
| 1778388617 | 13.89° C | 84% | 1005.1 hPa | 0 mm | - | - | - |
| 1778388317 | 12.78° C | 85% | 1005.1 hPa | 0 mm | - | - | - |
* Rain latest hour (hover to see other rain measurements)
** Current wind speed in m/s (hover to see current wind gust speed)